Regional Weather Roundup
Issued by NWS

Home | Current Version | Previous Version | Text Only | Print | Product List | Glossary Off
Versions: 1 2 3 4 5 6 7 8 9 10 11 12 13 14 15 16 17 18 19 20 21 22 23 24 25 26 27 28 29 30 31 32 33 34 35 36 37 38 39 40 41 42 43 44 45 46 47 48 49 50

000
ASUS43 KOAX 250910
RWRNE

WEATHER ROUNDUP FOR NEBRASKA
NATIONAL WEATHER SERVICE OMAHA NE
400 AM CDT FRI JUL 25 2014

NOTES: SATELLITE DATA IS BEING USED TO AUGMENT CLOUD COVER ABOVE
       12000 FEET.
       "FAIR" INDICATES FEW OR NO CLOUDS BELOW 12,000 FEET WITH NO
       SIGNIFICANT WEATHER AND/OR OBSTRUCTIONS TO VISIBILITY.

  * THESE STATIONS DO NOT REPORT WEATHER SUCH AS RAIN...SNOW OR FOG.

NEZ001>004-019>022-054>056-251000-
NEBRASKA PANHANDLE

CITY           SKY/WX    TMP DP  RH WIND       PRES   REMARKS
SCOTTSBLUFF    CLEAR     69  55  60 NW8       29.90R
ALLIANCE       CLEAR     73  52  47 W12       29.86F
CHADRON        CLEAR     70  55  59 CALM      29.86R
KIMBALL        CLEAR     66  55  66 W9        29.98S
SIDNEY         CLEAR     69  52  54 NW7       29.95S
$$

NEZ057>060-069>072-079>082-251000-
SOUTHWEST NEBRASKA

CITY           SKY/WX    TMP DP  RH WIND       PRES   REMARKS
NORTH PLATTE   CLEAR     72  60  66 SW3       29.81F
IMPERIAL       PTCLDY    71  57  61 NW13      29.84F
LEXINGTON      PTCLDY    77  71  82 SE10      29.79F
MCCOOK         PTCLDY    73  56  54 SW8       29.81S
OGALLALA       PTCLDY    59  57  94 W5        29.85F
$$

NEZ005>010-023>029-035>040-094-251000-
NORTH CENTRAL NEBRASKA

CITY           SKY/WX    TMP DP  RH WIND       PRES   REMARKS
VALENTINE      CLEAR     75  60  59 SW12      29.73S
AINSWORTH      CLEAR     72  70  93 S12       29.73F
BROKEN BOW     PTCLDY    79  70  74 S14G28    29.77S
O`NEILL        CLEAR     75  66  74 S13G18    29.72F
ORD            CLEAR     72  67  84 SE12      29.73F
THEDFORD       CLEAR     68  64  86 SW5       29.80S
$$

NEZ041-046>049-061>064-073>077-083>087-251000-
SOUTH CENTRAL NEBRASKA

CITY           SKY/WX    TMP DP  RH WIND       PRES   REMARKS
GRAND ISLAND   PTCLDY    75  69  81 SE13      29.76F
AURORA         PTCLDY    73  70  91 SE12      29.78F
HASTINGS       CLOUDY    77  67  71 S14       29.80F
HEBRON         CLOUDY    76  67  74 S3        29.83F
HOLDREGE       PTCLDY    75  69  81 S9        29.81F
KEARNEY *      MOCLDY    75  70  83 SE18      29.79F
YORK           PTCLDY    72  68  88 S13       29.79F
$$

NEZ011>018-030>034-042>045-251000-
NORTHEAST NEBRASKA

CITY           SKY/WX    TMP DP  RH WIND       PRES   REMARKS
NORFOLK        PTCLDY    75  67  76 S23       29.71F
ALBION         CLEAR     72  66  82 S12G18    29.74F
BLAIR          CLOUDY    77  61  57 S18       29.74F
COLUMBUS *     MOCLDY    73  64  73 S15       29.75F
FREMONT        CLOUDY    79  66  64 S16G25    29.74F
TEKAMAH        CLOUDY    79  67  66 SW15      29.71F
WAYNE          PTCLDY    78  68  72 S21       29.70F
$$

NEZ050>053-065>068-078-088>093-251000-
SOUTHEAST NEBRASKA

CITY           SKY/WX    TMP DP  RH WIND       PRES   REMARKS
LINCOLN        CLOUDY    74  68  81 S10       29.80F
OMAHA EPPLEY   CLOUDY    79  63  57 S15G29    29.73F
BEATRICE       CLOUDY    73  67  82 SE6       29.84F
FALLS CITY     CLOUDY    71  61  70 N9        29.88R
NEBRASKA CITY  CLOUDY    69  62  79 SE6       29.86F
PLATTSMOUTH    LGT RAIN  74  66  77 S15       29.79F
$$

NEZ044-045-051>053-067-251000-
OMAHA AREA

CITY           SKY/WX    TMP DP  RH WIND       PRES   REMARKS
OMAHA EPPLEY   CLOUDY    79  63  57 S15G29    29.73F
BLAIR          CLOUDY    77  61  57 S18       29.74F
FREMONT        CLOUDY    79  66  64 S16G25    29.74F
MILLARD        CLOUDY    76  69  78 SW7G17    29.75F
OFFUTT AFB     MOCLDY    75  72  88 S14G31    29.74F
PLATTSMOUTH    LGT RAIN  74  66  77 S15       29.79F
WAHOO          FAIR      74  68  80 S12G18    29.76F
$$



USA.gov is the U.S. government's official web portal to all federal, state and local government web resources and services.